This is the latest recevied weather packets stored in our database for station/object KD4PMP. If no packets are shown the sender has not sent any weather packets the latest 10 day(s).
| Time | Temp. | Humidity | Pressure | Rain* | Wind** | Luminosity | Snow |
|---|---|---|---|---|---|---|---|
| 1788271567 | 30° C | 74% | 1018.8 hPa | 0 mm | - | - | - |
| 1788270961 | 29.44° C | 76% | 1018.8 hPa | 0 mm | - | - | - |
| 1788270354 | 28.33° C | 79% | 1018.9 hPa | 0 mm | - | - | - |
| 1788269748 | 27.22° C | 81% | 1018.8 hPa | 0 mm | - | - | - |
| 1788269141 | 27.22° C | 82% | 1018.8 hPa | 0 mm | - | - | - |
| 1788268535 | 26.11° C | 85% | 1018.9 hPa | 0 mm | - | - | - |
| 1788267929 | 25.56° C | 87% | 1018.8 hPa | 0 mm | - | - | - |
| 1788267322 | 25° C | 89% | 1018.7 hPa | 0 mm | - | - | - |
| 1788266716 | 24.44° C | 91% | 1018.7 hPa | 0 mm | - | - | - |
| 1788266110 | 23.89° C | 93% | 1018.5 hPa | 0 mm | - | - | - |
| 1788265503 | 23.33° C | 94% | 1018.5 hPa | 0 mm | - | - | - |
| 1788264897 | 23.33° C | 94% | 1018.3 hPa | 0 mm | - | - | - |
| 1788264291 | 23.33° C | 94% | 1018.3 hPa | 0 mm | - | - | - |
| 1788263684 | 23.33° C | 94% | 1018.1 hPa | 0 mm | - | - | - |
| 1788263078 | 22.78° C | 94% | 1018 hPa | 0 mm | - | - | - |
| 1788262471 | 22.78° C | 94% | 1017.9 hPa | 0 mm | - | - | - |
| 1788261865 | 22.78° C | 94% | 1017.6 hPa | 0 mm | - | - | - |
| 1788261259 | 22.78° C | 94% | 1017.4 hPa | 0 mm | - | - | - |
| 1788260652 | 22.78° C | 94% | 1017.3 hPa | 0 mm | - | - | - |
| 1788260574 | 22.78° C | 94% | 1017.3 hPa | 0 mm | - | - | - |
| 1788259967 | 22.78° C | 94% | 1017.2 hPa | 0 mm | - | - | - |
| 1788259361 | 22.78° C | 94% | 1017.4 hPa | 0 mm | - | - | - |
| 1788258754 | 23.33° C | 93% | 1017.2 hPa | 0 mm | - | - | - |
| 1788258148 | 23.33° C | 93% | 1017.2 hPa | 0 mm | - | - | - |
| 1788257541 | 23.33° C | 93% | 1017.1 hPa | 0 mm | - | - | - |
* Rain latest hour (hover to see other rain measurements)
** Current wind speed in m/s (hover to see current wind gust speed)